,,PA_Meas_PMT16A,,PR_Meas_QMR101_102,,RH_Meas_QMH101,,SR_Meas_QMS101,,TA_Meas_QMH101,,GenWind,,GenWind,
time,status,PA,status,PR,status,RH,status,SR,status,TA,status,DirAvg,status,SpdAvg,
2011-04-20, 00:00:04,VALID,917.448,VALID,0,VALID,96.5353,VALID,0,VALID,20.4439,VALID,20,VALID,0.328125,
2011-04-20, 00:01:04,VALID,917.405,VALID,0,VALID,96.4972,VALID,0,VALID,20.4439,VALID,21,VALID,0.625391,
2011-04-20, 00:02:04,VALID,917.386,VALID,0,VALID,96.5277,VALID,0,VALID,20.5024,VALID,20,VALID,0.341406,
2011-04-20, 00:03:04,VALID,917.388,VALID,0,VALID,96.4057,VALID,0,VALID,20.4829,VALID,20,VALID,0.395703,
2011-04-20, 00:04:04,VALID,917.384,VALID,0,VALID,96.2533,VALID,0,VALID,20.4439,VALID,20,VALID,0.391406,
2011-04-20, 00:05:04,VALID,917.356,VALID,0,VALID,96.3142,VALID,0,VALID,20.4033,VALID,20,VALID,0.355469,
2011-04-20, 00:06:04,VALID,917.391,VALID,0,VALID,96.2761,VALID,0,VALID,20.4049,VALID,20,VALID,0.141797,
2011-04-20, 00:07:04,VALID,917.382,VALID,0,VALID,96.3447,VALID,0,VALID,20.4049,VALID,21,VALID,0.228906,
2011-04-20, 00:08:04,VALID,917.4,VALID,0,VALID,96.3371,VALID,0,VALID,20.4033,VALID,21,VALID,0.127344,
2011-04-20, 00:09:04,VALID,917.426,VALID,0,VALID,96.3829,VALID,0,VALID,20.4228,VALID,20,VALID,0.245312,
2011-04-20, 00:10:04,VALID,917.389,VALID,0,VALID,96.3676,VALID,0,VALID,20.4423,VALID,20,VALID,0,
2011-04-20, 00:11:04,VALID,917.427,VALID,0,VALID,96.3524,VALID,0,VALID,20.4829,VALID,20,VALID,0,
2011-04-20, 00:12:04,VALID,917.412,VALID,0,VALID,96.2609,VALID,0,VALID,20.4423,VALID,20,VALID,0,
2011-04-20, 00:13:04,VALID,917.381,VALID,0,VALID,96.2837,VALID,0,VALID,20.4829,VALID,20,VALID,0,
2011-04-20, 00:14:04,VALID,917.383,VALID,0,VALID,96.1999,VALID,0,VALID,20.4618,VALID,20,VALID,0,
2011-04-20, 00:15:04,VALID,917.39,VALID,0,VALID,96.116,VALID,0,VALID,20.4634,VALID,20,VALID,0,
2011-04-20, 00:16:04,VALID,917.384,VALID,0,VALID,95.9864,VALID,0,VALID,20.4228,VALID,20,VALID,0,
2011-04-20, 00:17:04,VALID,917.379,VALID,0,VALID,95.8492,VALID,0,VALID,20.4049,VALID,20,VALID,0,
2011-04-20, 00:18:04,VALID,917.388,VALID,0,VALID,95.5595,VALID,0,VALID,20.2863,VALID,20,VALID,0.397266,
2011-04-20, 00:19:04,VALID,917.367,VALID,0,VALID,95.4528,VALID,0,VALID,20.2083,VALID,20,VALID,0.492578,
2011-04-20, 00:20:04,VALID,917.34,VALID,0,VALID,95.4985,VALID,0,VALID,20.2293,VALID,20,VALID,0.5125,
2011-04-20, 00:21:04,VALID,917.316,VALID,0,VALID,95.6662,VALID,0,VALID,20.2293,VALID,21,VALID,0.405469,
2011-04-20, 00:22:04,VALID,917.313,VALID,0,VALID,95.6891,VALID,0,VALID,20.2293,VALID,20,VALID,0.347656,
2011-04-20, 00:23:04,VALID,917.269,VALID,0,VALID,95.6891,VALID,0,VALID,20.1903,VALID,20,VALID,0.646875,
2011-04-20, 00:24:04,VALID,917.258,VALID,0,VALID,95.6739,VALID,0,VALID,20.1708,VALID,20,VALID,0.628906,
2011-04-20, 00:25:04,VALID,917.213,VALID,0,VALID,95.9178,VALID,0,VALID,20.1708,VALID,20,VALID,0.578906,
2011-04-20, 00:26:04,VALID,917.227,VALID,0,VALID,95.8263,VALID,0,VALID,20.1108,VALID,20,VALID,0.716406,
2011-04-20, 00:27:04,VALID,917.216,VALID,0,VALID,95.9712,VALID,0,VALID,20.1108,VALID,20,VALID,0.807422,
2011-04-20, 00:28:04,VALID,917.214,VALID,0,VALID,96.0245,VALID,0,VALID,20.1123,VALID,20,VALID,0.864062,
2011-04-20, 00:29:04,VALID,917.225,VALID,0,VALID,96.0855,VALID,0,VALID,20.1303,VALID,20,VALID,0.688672,
2011-04-20, 00:30:04,VALID,917.209,VALID,0,VALID,96.1618,VALID,0,VALID,20.1919,VALID,20,VALID,0.614844,
2011-04-20, 00:31:04,VALID,917.211,VALID,0,VALID,96.2151,VALID,0,VALID,20.1693,VALID,20,VALID,0.532812,
2011-04-20, 00:32:04,VALID,917.206,VALID,0,VALID,96.2533,VALID,0,VALID,20.1888,VALID,20,VALID,0.521484,
2011-04-20, 00:33:04,VALID,917.196,VALID,0,VALID,96.2304,VALID,0,VALID,20.1903,VALID,20,VALID,0.387891,
2011-04-20, 00:34:04,VALID,917.17,VALID,0,VALID,96.1465,VALID,0,VALID,20.1708,VALID,20,VALID,0.328516,
2011-04-20, 00:35:04,VALID,917.181,VALID,0,VALID,96.2151,VALID,0,VALID,20.1303,VALID,20,VALID,0.657812,
2011-04-20, 00:36:04,VALID,917.18,VALID,0,VALID,96.1008,VALID,0,VALID,20.1318,VALID,20,VALID,0.651172,
2011-04-20, 00:37:04,VALID,917.198,VALID,0,VALID,95.9712,VALID,0,VALID,20.0944,VALID,20,VALID,0.718359,
2011-04-20, 00:38:04,VALID,917.186,VALID,0,VALID,96.055,VALID,0,VALID,20.0523,VALID,20,VALID,0.731641,
2011-04-20, 00:39:04,VALID,917.216,VALID,0,VALID,96.0474,VALID,0,VALID,20.0928,VALID,20,VALID,0.708203,
2011-04-20, 00:40:04,VALID,917.189,VALID,0,VALID,96.0627,VALID,0,VALID,20.0523,VALID,20,VALID,0.557422,
2011-04-20, 00:41:04,VALID,917.187,VALID,0,VALID,96.1084,VALID,0,VALID,20.0733,VALID,20,VALID,0.558203,
2011-04-20, 00:42:04,VALID,917.229,VALID,0,VALID,96.1846,VALID,0,VALID,20.0733,VALID,20,VALID,0.717188,
2011-04-20, 00:43:04,VALID,917.201,VALID,0,VALID,96.1846,VALID,0,VALID,20.0928,VALID,20,VALID,0.64375,
2011-04-20, 00:44:04,VALID,917.195,VALID,0,VALID,96.299,VALID,0,VALID,20.1108,VALID,20,VALID,0.523047,
2011-04-20, 00:45:04,VALID,917.184,VALID,0,VALID,96.2761,VALID,0,VALID,20.1513,VALID,20,VALID,0.552734,
2011-04-20, 00:46:04,VALID,917.161,VALID,0,VALID,96.2609,VALID,0,VALID,20.1513,VALID,20,VALID,0.260156,
2011-04-20, 00:47:04,VALID,917.166,VALID,0,VALID,96.2151,VALID,0,VALID,20.1108,VALID,20,VALID,0.296875,
2011-04-20, 00:48:04,VALID,917.141,VALID,0,VALID,96.2456,VALID,0,VALID,20.1513,VALID,20,VALID,0.235547,
2011-04-20, 00:49:04,VALID,917.119,VALID,0,VALID,96.3295,VALID,0,VALID,20.1708,VALID,20,VALID,0.293359,
2011-04-20, 00:50:04,VALID,917.108,VALID,0,VALID,96.3524,VALID,0,VALID,20.2098,VALID,20,VALID,0.39375,
2011-04-20, 00:51:04,VALID,917.108,VALID,0,VALID,96.3905,VALID,0,VALID,20.2278,VALID,20,VALID,0.351172,
2011-04-20, 00:52:04,VALID,917.074,VALID,0,VALID,96.3524,VALID,0,VALID,20.2293,VALID,20,VALID,0.345313,
2011-04-20, 00:53:04,VALID,917.058,VALID,0,VALID,96.3676,VALID,0,VALID,20.2083,VALID,20,VALID,0.375391,
2011-04-20, 00:54:04,VALID,917.039,VALID,0,VALID,96.3142,VALID,0,VALID,20.1888,VALID,20,VALID,0.480859,
2011-04-20, 00:55:04,VALID,917.054,VALID,0,VALID,96.3066,VALID,0,VALID,20.1903,VALID,20,VALID,0.294531,
2011-04-20, 00:56:04,VALID,917.011,VALID,0,VALID,96.2456,VALID,0,VALID,20.1693,VALID,20,VALID,0.0117188,
2011-04-20, 00:57:04,VALID,917.004,VALID,0,VALID,96.1618,VALID,0,VALID,20.1498,VALID,21,VALID,0,
2011-04-20, 00:58:04,VALID,916.972,VALID,0,VALID,96.116,VALID,0,VALID,20.1303,VALID,20,VALID,0.307031,
2011-04-20, 00:59:04,VALID,916.964,VALID,0,VALID,96.0398,VALID,0,VALID,20.1318,VALID,20,VALID,0.273828,
2011-04-20, 01:00:04,VALID,916.932,VALID,0,VALID,95.9483,VALID,0,VALID,20.0718,VALID,20,VALID,0.293359,
2011-04-20, 01:01:04,VALID,916.911,VALID,0,VALID,95.8416,VALID,0,VALID,20.0733,VALID,20,VALID,0.323828,
2011-04-20, 01:02:04,VALID,916.88,VALID,0,VALID,95.1021,VALID,0,VALID,19.8588,VALID,20,VALID,0.433984,
2011-04-20, 01:03:04,VALID,916.859,VALID,0,VALID,95.186,VALID,0,VALID,19.8393,VALID,20,VALID,0.501562,
2011-04-20, 01:04:04,VALID,916.82,VALID,0,VALID,95.4757,VALID,0,VALID,19.8588,VALID,20,VALID,0.505859,
2011-04-20, 01:05:04,VALID,916.826,VALID,0,VALID,95.6586,VALID,0,VALID,19.8783,VALID,20,VALID,0.528125,
2011-04-20, 01:06:04,VALID,916.767,VALID,0,VALID,96.0169,VALID,0,VALID,19.9743,VALID,20,VALID,0.575781,
2011-04-20, 01:07:04,VALID,916.765,VALID,0,VALID,96.1846,VALID,0,VALID,20.0538,VALID,20,VALID,0.755469,
2011-04-20, 01:08:04,VALID,916.751,VALID,0,VALID,96.2151,VALID,0,VALID,20.0733,VALID,20,VALID,0.845703,
2011-04-20, 01:09:04,VALID,916.727,VALID,0,VALID,96.2228,VALID,0,VALID,20.1123,VALID,20,VALID,0.975,
2011-04-20, 01:10:04,VALID,916.733,VALID,0,VALID,96.1618,VALID,0,VALID,20.1123,VALID,20,VALID,0.978906,
2011-04-20, 01:11:04,VALID,916.733,VALID,0,VALID,96.0398,VALID,0,VALID,20.0928,VALID,20,VALID,0.754297,
2011-04-20, 01:12:04,VALID,916.723,VALID,0,VALID,95.9788,VALID,0,VALID,20.0733,VALID,20,VALID,0.764844,
2011-04-20, 01:13:04,VALID,916.721,VALID,0,VALID,95.834,VALID,0,VALID,20.0538,VALID,20,VALID,0.629297,
2011-04-20, 01:14:04,VALID,916.747,VALID,0,VALID,95.773,VALID,0,VALID,20.0538,VALID,20,VALID,0.702344,
2011-04-20, 01:15:04,VALID,916.724,VALID,0,VALID,95.7272,VALID,0,VALID,20.0733,VALID,20,VALID,0.838672,
2011-04-20, 01:16:04,VALID,916.709,VALID,0,VALID,95.5519,VALID,0,VALID,19.9758,VALID,20,VALID,0.715234,
2011-04-20, 01:17:04,VALID,916.707,VALID,0,VALID,95.3918,VALID,0,VALID,19.9563,VALID,20,VALID,0.663672,
2011-04-20, 01:18:04,VALID,916.721,VALID,0,VALID,95.3842,VALID,0,VALID,19.9578,VALID,20,VALID,0.69375,
2011-04-20, 01:19:04,VALID,916.689,VALID,0,VALID,95.3537,VALID,0,VALID,19.8783,VALID,20,VALID,0.66875,
2011-04-20, 01:20:04,VALID,916.673,VALID,0,VALID,95.3766,VALID,0,VALID,19.8588,VALID,20,VALID,0.600391,
2011-04-20, 01:21:04,VALID,916.695,VALID,0,VALID,95.4299,VALID,0,VALID,19.8198,VALID,20,VALID,0.617188,
2011-04-20, 01:22:04,VALID,916.687,VALID,0,VALID,95.5062,VALID,0.107441,VALID,19.8003,VALID,20,VALID,0.782812,
2011-04-20, 01:23:04,VALID,916.667,VALID,0,VALID,95.6129,VALID,0,VALID,19.7808,VALID,20,VALID,0.826563,
2011-04-20, 01:24:04,VALID,916.652,VALID,0,VALID,95.7272,VALID,0,VALID,19.7808,VALID,20,VALID,0.919531,
2011-04-20, 01:25:04,VALID,916.658,VALID,0,VALID,95.8797,VALID,0,VALID,19.7808,VALID,20,VALID,0.934766,
2011-04-20, 01:26:04,VALID,916.667,VALID,0,VALID,95.9254,VALID,0,VALID,19.7613,VALID,20,VALID,0.587891,
2011-04-20, 01:27:04,VALID,916.645,VALID,0,VALID,95.8645,VALID,0,VALID,19.6833,VALID,20,VALID,0.477734,
2011-04-20, 01:28:04,VALID,916.646,VALID,0,VALID,95.8492,VALID,0,VALID,19.6848,VALID,20,VALID,0.479297,
2011-04-20, 01:29:04,VALID,916.601,VALID,0,VALID,95.9026,VALID,0,VALID,19.6638,VALID,20,VALID,0.230078,
2011-04-20, 01:30:04,VALID,916.6,VALID,0,VALID,95.8492,VALID,0,VALID,19.6443,VALID,20,VALID,0.286719,
2011-04-20, 01:31:04,VALID,916.585,VALID,0,VALID,95.9483,VALID,0,VALID,19.6638,VALID,21,VALID,0.383984,
2011-04-20, 01:32:04,VALID,916.594,VALID,0,VALID,95.9483,VALID,0,VALID,19.6638,VALID,20,VALID,0.313281,
2011-04-20, 01:33:04,VALID,916.597,VALID,0,VALID,95.7425,VALID,0,VALID,19.6263,VALID,20,VALID,0.369922,
2011-04-20, 01:34:04,VALID,916.583,VALID,0,VALID,95.4833,VALID,0,VALID,19.4898,VALID,20,VALID,0.504297,
2011-04-20, 01:35:04,VALID,916.61,VALID,0,VALID,95.6129,VALID,0,VALID,19.4883,VALID,20,VALID,0.717969,
2011-04-20, 01:36:04,VALID,916.594,VALID,0,VALID,95.834,VALID,0,VALID,19.5273,VALID,20,VALID,0.902734,
2011-04-20, 01:37:04,VALID,916.605,VALID,0,VALID,96.0855,VALID,0,VALID,19.6248,VALID,20,VALID,0.824219,
2011-04-20, 01:38:04,VALID,916.64,VALID,0,VALID,96.1541,VALID,0,VALID,19.6443,VALID,20,VALID,0.844531,
2011-04-20, 01:39:04,VALID,916.63,VALID,0,VALID,96.1999,VALID,0,VALID,19.6248,VALID,21,VALID,0.896094,
2011-04-20, 01:40:04,VALID,916.647,VALID,0,VALID,96.1541,VALID,0,VALID,19.6443,VALID,21,VALID,0.625391,
2011-04-20, 01:41:04,VALID,916.64,VALID,0,VALID,96.2075,VALID,0,VALID,19.6443,VALID,20,VALID,0.600781,
2011-04-20, 01:42:04,VALID,916.673,VALID,0,VALID,96.3142,VALID,0,VALID,19.7238,VALID,20,VALID,0.685938,
2011-04-20, 01:43:04,VALID,916.647,VALID,0,VALID,96.2914,VALID,0,VALID,19.7223,VALID,21,VALID,0.523828,
2011-04-20, 01:44:04,VALID,916.645,VALID,0,VALID,96.1846,VALID,0,VALID,19.6833,VALID,21,VALID,0.295703,
2011-04-20, 01:45:04,VALID,916.652,VALID,0,VALID,96.1389,VALID,0.107441,VALID,19.6638,VALID,21,VALID,0.43125,
2011-04-20, 01:46:04,VALID,916.647,VALID,0,VALID,96.1541,VALID,0,VALID,19.6833,VALID,20,VALID,0.419531,
2011-04-20, 01:47:04,VALID,916.654,VALID,0,VALID,96.1313,VALID,0,VALID,19.6638,VALID,21,VALID,0.503125,
2011-04-20, 01:48:04,VALID,916.663,VALID,0,VALID,96.1465,VALID,0,VALID,19.6638,VALID,21,VALID,0.694922,
2011-04-20, 01:49:04,VALID,916.629,VALID,0,VALID,96.1389,VALID,0,VALID,19.6443,VALID,20,VALID,0.420312,
2011-04-20, 01:50:04,VALID,916.629,VALID,0,VALID,96.177,VALID,0,VALID,19.6443,VALID,21,VALID,0.540234,
2011-04-20, 01:51:04,VALID,916.658,VALID,0,VALID,96.1465,VALID,0,VALID,19.6248,VALID,21,VALID,0.641016,
2011-04-20, 01:52:04,VALID,916.628,VALID,0,VALID,96.2151,VALID,0,VALID,19.6053,VALID,21,VALID,0.627734,
2011-04-20, 01:53:04,VALID,916.63,VALID,0,VALID,96.2533,VALID,0,VALID,19.6053,VALID,20,VALID,0.703516,
2011-04-20, 01:54:04,VALID,916.615,VALID,0,VALID,96.4515,VALID,0,VALID,19.7028,VALID,21,VALID,0.688672,
2011-04-20, 01:55:04,VALID,916.572,VALID,0,VALID,96.5048,VALID,0,VALID,19.7613,VALID,21,VALID,0.848047,
2011-04-20, 01:56:04,VALID,916.568,VALID,0,VALID,96.6115,VALID,0,VALID,19.8408,VALID,21,VALID,1.04688,
2011-04-20, 01:57:04,VALID,916.538,VALID,0,VALID,96.6268,VALID,0,VALID,19.8393,VALID,21,VALID,0.8875,
2011-04-20, 01:58:04,VALID,916.526,VALID,0,VALID,96.6649,VALID,0,VALID,19.8978,VALID,21,VALID,0.966406,
2011-04-20, 01:59:04,VALID,916.491,VALID,0,VALID,96.6192,VALID,0,VALID,19.8978,VALID,21,VALID,0.808203,
2011-04-20, 02:00:04,VALID,916.477,VALID,0,VALID,96.6039,VALID,0,VALID,19.8588,VALID,21,VALID,0.894531,
2011-04-20, 02:01:04,VALID,916.449,VALID,0,VALID,96.5353,VALID,0,VALID,19.8393,VALID,21,VALID,0.577734,
2011-04-20, 02:02:04,VALID,916.445,VALID,0,VALID,96.5353,VALID,0,VALID,19.7613,VALID,21,VALID,0.639844,
2011-04-20, 02:03:04,VALID,916.433,VALID,0,VALID,96.4362,VALID,0,VALID,19.6833,VALID,21,VALID,0.673828,
2011-04-20, 02:04:04,VALID,916.427,VALID,0,VALID,96.4591,VALID,0,VALID,19.6638,VALID,21,VALID,0.818359,
2011-04-20, 02:05:04,VALID,916.411,VALID,0,VALID,96.5429,VALID,0,VALID,19.6638,VALID,21,VALID,0.877734,
2011-04-20, 02:06:04,VALID,916.413,VALID,0,VALID,96.5048,VALID,0,VALID,19.6443,VALID,21,VALID,0.642969,
2011-04-20, 02:07:04,VALID,916.374,VALID,0,VALID,96.5506,VALID,0,VALID,19.6248,VALID,22,VALID,0.791406,
2011-04-20, 02:08:04,VALID,916.386,VALID,0,VALID,96.5658,VALID,0,VALID,19.6248,VALID,22,VALID,0.767969,
2011-04-20, 02:09:04,VALID,916.399,VALID,0,VALID,96.5887,VALID,0,VALID,19.6263,VALID,22,VALID,0.578125,
2011-04-20, 02:10:04,VALID,916.376,VALID,0,VALID,96.6192,VALID,0,VALID,19.6248,VALID,22,VALID,0.9,
2011-04-20, 02:11:04,VALID,916.39,VALID,0,VALID,96.6115,VALID,0,VALID,19.6443,VALID,22,VALID,0.803125,
2011-04-20, 02:12:04,VALID,916.383,VALID,0,VALID,96.642,VALID,0,VALID,19.6638,VALID,22,VALID,0.79375,
2011-04-20, 02:13:04,VALID,916.366,VALID,0,VALID,96.6497,VALID,0,VALID,19.6833,VALID,22,VALID,0.998047,
2011-04-20, 02:14:04,VALID,916.36,VALID,0,VALID,96.6192,VALID,0,VALID,19.7028,VALID,22,VALID,0.705078,
2011-04-20, 02:15:04,VALID,916.358,VALID,0,VALID,96.5429,VALID,0,VALID,19.6833,VALID,22,VALID,0.617188,
2011-04-20, 02:16:04,VALID,916.351,VALID,0,VALID,96.4667,VALID,0,VALID,19.6443,VALID,22,VALID,0.244141,
2011-04-20, 02:17:04,VALID,916.318,VALID,0,VALID,96.4438,VALID,0,VALID,19.6653,VALID,22,VALID,0.230859,
2011-04-20, 02:18:04,VALID,916.311,VALID,0,VALID,96.3371,VALID,0,VALID,19.5858,VALID,22,VALID,0.598828,
2011-04-20, 02:19:04,VALID,916.293,VALID,0,VALID,96.2685,VALID,0,VALID,19.5273,VALID,22,VALID,0.634375,
2011-04-20, 02:20:04,VALID,916.29,VALID,0,VALID,96.3066,VALID,0,VALID,19.5468,VALID,22,VALID,0.576953,
2011-04-20, 02:21:05,VALID,916.252,VALID,0,VALID,96.3524,VALID,0,VALID,19.5663,VALID,22,VALID,0.50625,
2011-04-20, 02:22:05,VALID,916.268,VALID,0,VALID,96.3524,VALID,0,VALID,19.5663,VALID,22,VALID,0.580469,
2011-04-20, 02:23:05,VALID,916.199,VALID,0,VALID,96.36,VALID,0,VALID,19.5678,VALID,22,VALID,0.564062,
2011-04-20, 02:24:05,VALID,916.189,VALID,0,VALID,96.4057,VALID,0,VALID,19.5663,VALID,22,VALID,0.495313,
2011-04-20, 02:25:05,VALID,916.191,VALID,0,VALID,96.4133,VALID,0,VALID,19.5663,VALID,22,VALID,0.357422,
2011-04-20, 02:26:05,VALID,916.168,VALID,0,VALID,96.3905,VALID,0,VALID,19.5468,VALID,22,VALID,0.527734,
2011-04-20, 02:27:05,VALID,916.136,VALID,0,VALID,96.4591,VALID,0,VALID,19.5273,VALID,22,VALID,0.520312,
2011-04-20, 02:28:05,VALID,916.088,VALID,0,VALID,96.4591,VALID,0,VALID,19.5468,VALID,22,VALID,0.25625,
2011-04-20, 02:29:05,VALID,916.054,VALID,0,VALID,96.4743,VALID,0,VALID,19.5273,VALID,22,VALID,0.502734,
2011-04-20, 02:30:05,VALID,916.058,VALID,0,VALID,96.4515,VALID,0,VALID,19.4883,VALID,22,VALID,0.491797,
2011-04-20, 02:31:05,VALID,916.051,VALID,0,VALID,96.5506,VALID,0,VALID,19.5078,VALID,22,VALID,0.710938,
2011-04-20, 02:32:05,VALID,916.058,VALID,0,VALID,96.5887,VALID,0,VALID,19.5273,VALID,23,VALID,0.787109,
2011-04-20, 02:33:05,VALID,916.036,VALID,0,VALID,96.5658,VALID,0,VALID,19.5078,VALID,23,VALID,0.410937,
2011-04-20, 02:34:05,VALID,916.089,VALID,0,VALID,96.5506,VALID,0,VALID,19.5093,VALID,23,VALID,0.222656,
2011-04-20, 02:35:05,VALID,916.075,VALID,0,VALID,96.6039,VALID,0,VALID,19.5078,VALID,23,VALID,0.557422,
2011-04-20, 02:36:05,VALID,916.068,VALID,0,VALID,96.5963,VALID,0,VALID,19.4883,VALID,23,VALID,0.447266,
2011-04-20, 02:37:05,VALID,916.079,VALID,0,VALID,96.5734,VALID,0,VALID,19.4688,VALID,23,VALID,0.420312,
2011-04-20, 02:38:05,VALID,916.039,VALID,0,VALID,96.5887,VALID,0,VALID,19.4898,VALID,23,VALID,0.41875,
2011-04-20, 02:39:05,VALID,916.025,VALID,0,VALID,96.6039,VALID,0,VALID,19.5093,VALID,23,VALID,0.511719,
2011-04-20, 02:40:05,VALID,915.976,VALID,0,VALID,96.6115,VALID,0,VALID,19.5078,VALID,23,VALID,0.333203,
2011-04-20, 02:41:05,VALID,915.896,VALID,0,VALID,96.5887,VALID,0,VALID,19.5078,VALID,23,VALID,0.574219,
2011-04-20, 02:42:05,VALID,915.894,VALID,0,VALID,96.5506,VALID,0,VALID,19.4883,VALID,23,VALID,0.68125,
2011-04-20, 02:43:05,VALID,915.867,VALID,0,VALID,96.5048,VALID,0,VALID,19.4703,VALID,23,VALID,0.334766,
2011-04-20, 02:44:05,VALID,915.837,VALID,0,VALID,96.4819,VALID,0,VALID,19.4703,VALID,23,VALID,0.50625,
2011-04-20, 02:45:05,VALID,915.844,VALID,0,VALID,96.4972,VALID,0,VALID,19.4493,VALID,23,VALID,0.735156,
2011-04-20, 02:46:05,VALID,915.799,VALID,0,VALID,96.4591,VALID,0,VALID,19.4298,VALID,23,VALID,0.992188,
2011-04-20, 02:47:05,VALID,915.81,VALID,0,VALID,96.4133,VALID,0,VALID,19.4103,VALID,24,VALID,0.932422,
2011-04-20, 02:48:05,VALID,915.802,VALID,0,VALID,96.3295,VALID,0,VALID,19.3518,VALID,24,VALID,0.589844,
2011-04-20, 02:49:05,VALID,915.817,VALID,0,VALID,96.3447,VALID,0,VALID,19.3323,VALID,24,VALID,0.643359,
2011-04-20, 02:50:05,VALID,915.811,VALID,0,VALID,96.421,VALID,0,VALID,19.3518,VALID,24,VALID,0.833984,
2011-04-20, 02:51:05,VALID,915.836,VALID,0,VALID,96.4819,VALID,0,VALID,19.3713,VALID,25,VALID,0.691797,
2011-04-20, 02:52:05,VALID,915.837,VALID,0,VALID,96.5048,VALID,0,VALID,19.3713,VALID,115,VALID,0.564844,
2011-04-20, 02:53:05,VALID,915.84,VALID,0,VALID,96.299,VALID,0,VALID,19.2543,VALID,115,VALID,0.510156,
2011-04-20, 02:54:05,VALID,915.844,VALID,0,VALID,96.36,VALID,0,VALID,19.2348,VALID,115,VALID,0.707031,
2011-04-20, 02:55:05,VALID,915.852,VALID,0,VALID,96.4896,VALID,0,VALID,19.2543,VALID,115,VALID,0.813281,
2011-04-20, 02:56:05,VALID,915.84,VALID,0,VALID,96.4972,VALID,0,VALID,19.2543,VALID,115,VALID,0.886719,
2011-04-20, 02:57:05,VALID,915.833,VALID,0,VALID,96.4667,VALID,0,VALID,19.2153,VALID,115,VALID,0.884766,
2011-04-20, 02:58:05,VALID,915.817,VALID,0,VALID,96.5658,VALID,0,VALID,19.2348,VALID,115,VALID,0.5875,
2011-04-20, 02:59:05,VALID,915.821,VALID,0,VALID,96.5124,VALID,0,VALID,19.1958,VALID,115,VALID,0.431641,
2011-04-20, 03:00:05,VALID,915.849,VALID,0,VALID,96.5124,VALID,0,VALID,19.1568,VALID,115,VALID,0.404297,
2011-04-20, 03:01:05,VALID,915.851,VALID,0,VALID,96.4972,VALID,0,VALID,19.1388,VALID,115,VALID,0.3,
2011-04-20, 03:02:05,VALID,915.852,VALID,0,VALID,96.5048,VALID,0,VALID,19.0788,VALID,115,VALID,0.304688,
2011-04-20, 03:03:05,VALID,915.855,VALID,0,VALID,96.6039,VALID,0,VALID,19.0788,VALID,115,VALID,0.313281,
2011-04-20, 03:04:05,VALID,915.89,VALID,0,VALID,96.6878,VALID,0,VALID,19.0788,VALID,115,VALID,0.325,
2011-04-20, 03:05:05,VALID,915.93,VALID,0,VALID,96.7793,VALID,0,VALID,19.1583,VALID,115,VALID,0.358594,
2011-04-20, 03:06:05,VALID,915.901,VALID,0,VALID,96.7945,VALID,0,VALID,19.1583,VALID,115,VALID,0.169141,
2011-04-20, 03:07:05,VALID,915.895,VALID,0,VALID,96.8479,VALID,0,VALID,19.1763,VALID,115,VALID,0,
2011-04-20, 03:08:05,VALID,915.926,VALID,0,VALID,96.764,VALID,0,VALID,19.1568,VALID,115,VALID,0,
2011-04-20, 03:09:05,VALID,915.881,VALID,0,VALID,96.825,VALID,0,VALID,19.1359,VALID,115,VALID,0,
2011-04-20, 03:10:05,VALID,915.881,VALID,0,VALID,96.8631,VALID,0,VALID,19.1958,VALID,115,VALID,0,
2011-04-20, 03:11:05,VALID,915.883,VALID,0,VALID,96.886,VALID,0,VALID,19.1958,VALID,115,VALID,0,
2011-04-20, 03:12:05,VALID,915.85,VALID,0,VALID,96.8098,VALID,0,VALID,19.1568,VALID,115,VALID,0,
2011-04-20, 03:13:05,VALID,915.826,VALID,0,VALID,96.7716,VALID,0,VALID,19.1178,VALID,115,VALID,0.222266,
2011-04-20, 03:14:05,VALID,915.832,VALID,0,VALID,96.703,VALID,0,VALID,19.0593,VALID,115,VALID,0.583594,
2011-04-20, 03:15:05,VALID,915.839,VALID,0,VALID,96.6802,VALID,0,VALID,19.0008,VALID,115,VALID,0.574609,
2011-04-20, 03:16:05,VALID,915.829,VALID,0,VALID,96.7488,VALID,0,VALID,18.9604,VALID,115,VALID,0.541016,
2011-04-20, 03:17:05,VALID,915.838,VALID,0,VALID,96.7716,VALID,0,VALID,18.9619,VALID,115,VALID,0.930469,
2011-04-20, 03:18:05,VALID,915.846,VALID,0,VALID,96.764,VALID,0,VALID,18.9229,VALID,115,VALID,0.758203,
2011-04-20, 03:19:05,VALID,915.83,VALID,0,VALID,96.8479,VALID,0,VALID,18.9619,VALID,115,VALID,0.672266,
2011-04-20, 03:20:05,VALID,915.854,VALID,0,VALID,96.8936,VALID,0,VALID,18.9814,VALID,115,VALID,0.658984,
2011-04-20, 03:21:05,VALID,915.858,VALID,0,VALID,96.8936,VALID,0,VALID,18.9814,VALID,115,VALID,0.523047,
2011-04-20, 03:22:05,VALID,915.845,VALID,0,VALID,96.9165,VALID,0,VALID,18.9814,VALID,115,VALID,0.411328,
2011-04-20, 03:23:05,VALID,915.814,VALID,0,VALID,96.9546,VALID,0,VALID,19.0008,VALID,115,VALID,0.475391,
2011-04-20, 03:24:05,VALID,915.766,VALID,0,VALID,96.9546,VALID,0,VALID,19.0413,VALID,115,VALID,0.614062,
2011-04-20, 03:25:05,VALID,915.783,VALID,0,VALID,96.9775,VALID,0,VALID,19.0203,VALID,115,VALID,0.758984,
2011-04-20, 03:26:05,VALID,915.759,VALID,0,VALID,96.9851,VALID,0,VALID,19.0203,VALID,115,VALID,0.517578,
2011-04-20, 03:27:05,VALID,915.774,VALID,0,VALID,96.9775,VALID,0,VALID,19.0203,VALID,115,VALID,0.204297,
2011-04-20, 03:28:05,VALID,915.809,VALID,0,VALID,96.947,VALID,0,VALID,19.0203,VALID,115,VALID,0,
2011-04-20, 03:29:05,VALID,915.805,VALID,0,VALID,96.9622,VALID,0.107441,VALID,19.0008,VALID,115,VALID,0.342578,
2011-04-20, 03:30:05,VALID,915.793,VALID,0,VALID,96.9775,VALID,0,VALID,18.9604,VALID,115,VALID,0.491016,
2011-04-20, 03:31:05,VALID,915.801,VALID,0,VALID,96.9698,VALID,0,VALID,18.9619,VALID,115,VALID,0.495703,
2011-04-20, 03:32:05,VALID,915.766,VALID,0,VALID,96.9622,VALID,0,VALID,18.9424,VALID,115,VALID,0.671875,
2011-04-20, 03:33:05,VALID,915.795,VALID,0,VALID,96.9546,VALID,0,VALID,18.9229,VALID,115,VALID,0.814844,
2011-04-20, 03:34:05,VALID,915.774,VALID,0,VALID,97.0156,VALID,0,VALID,18.9229,VALID,115,VALID,0.842969,
2011-04-20, 03:35:05,VALID,915.762,VALID,0,VALID,97.069,VALID,0,VALID,18.9424,VALID,115,VALID,0.308984,
2011-04-20, 03:36:05,VALID,915.764,VALID,0,VALID,97.0385,VALID,0,VALID,18.9229,VALID,115,VALID,0.607031,
2011-04-20, 03:37:05,VALID,915.763,VALID,0,VALID,97.0461,VALID,0,VALID,18.9229,VALID,115,VALID,0.942578,
2011-04-20, 03:38:05,VALID,915.745,VALID,0,VALID,97.0613,VALID,0,VALID,18.9424,VALID,115,VALID,1.06133,
2011-04-20, 03:39:05,VALID,915.708,VALID,0,VALID,97.0766,VALID,0,VALID,18.9619,VALID,115,VALID,1.3543,
2011-04-20, 03:40:05,VALID,915.709,VALID,0,VALID,97.0918,VALID,0,VALID,19.0008,VALID,115,VALID,0.808594,
2011-04-20, 03:41:05,VALID,915.707,VALID,0,VALID,97.1223,VALID,0.107441,VALID,19.0203,VALID,115,VALID,0.777344,
2011-04-20, 03:42:05,VALID,915.692,VALID,0,VALID,97.1071,VALID,0,VALID,18.9814,VALID,115,VALID,1.02344,
2011-04-20, 03:43:05,VALID,915.686,VALID,0,VALID,97.1071,VALID,0,VALID,18.9619,VALID,115,VALID,0.734766,
2011-04-20, 03:44:05,VALID,915.69,VALID,0,VALID,97.0994,VALID,0,VALID,18.9424,VALID,115,VALID,0.940234,
2011-04-20, 03:45:05,VALID,915.686,VALID,0,VALID,97.1071,VALID,0,VALID,18.9619,VALID,115,VALID,1.18555,
2011-04-20, 03:46:05,VALID,915.691,VALID,0,VALID,97.1223,VALID,0,VALID,18.9814,VALID,115,VALID,1.35664,